Cloud_Cover
12 32 32 24 20 12 0 0 0 8 8 8 8 8 0 0 0 0 0 0 0 0 0 0 0 0 0 8 8 0 0 0 0 0 0 0 0 12 44 48 44 24 12 12 8 0 0 0 0 0 0 0 0 0 0 0 0 0 0 0 0 0 0 0 0 8 8 8 0 0 0 0 0 0 0 0 0 0 0 0 0 8 12 8 8 0 0 0 8 8 12 8 8 0 0 0 0 0 0 0 0 0 0
32 24 20 12 8 8 8 0 8 8 8 8 0 0 0 0 0 0 0 0 0 0 0 0 0 0 0 8 0 0 0 0 0 0 0 0 0 0 12 56 44 12 0 0 0 0 0 0 0 0 0 0 0 0 0 0 0 0 0 0 0 0 0 0 0 0 0 0 0 0 0 0 0 0 0 0 0 0 0 0 0 0 0 0 0 0 0 0 0 8 8 8 8 0 0 0 0 0 0 0 0 0 0
20 8 0 0 12 20 8 0 8 8 0 0 0 0 0 0 0 0 0 0 0 0 0 0 0 8 12 12 8 0 0 0 0 0 0 0 0 0 20 32 20 0 0 0 0 0 0 0 0 0 0 0 0 0 12 8 0 0 0 0 0 0 0 0 0 0 0 0 0 8 0 0 0 0 0 0 0 0 0 0 0 0 0 0 0 0 0 0 0 0 8 0 0 0 0 0 0 0 0 0 0 0 0
8 0 0 8 20 20 0 0 0 0 0 0 0 0 0 0 0 0 0 0 0 0 0 0 0 0 8 12 8 0 0 0 0 0 0 0 8 20 32 32 24 12 0 0 0 0 0 0 0 0 0 0 0 0 20 8 0 0 0 0 0 0 0 0 0 0 0 0 0 0 0 0 0 0 0 0 0 0 0 0 0 0 0 0 0 0 0 0 0 0 0 0 0 0 0 0 0 0 0 0 0 0 0
0 0 0 0 12 20 8 0 0 0 0 0 0 0 0 0 0 0 0 0 0 0 0 0 0 8 20 8 0 0 0 0 0 0 0 0 0 8 24 24 12 0 0 0 0 0 0 0 0 0 0 0 12 24 24 8 0 0 0 0 8 8 0 0 0 0 0 0 0 0 0 0 0 0 0 0 0 0 0 0 0 0 0 0 0 0 8 8 0 0 0 0 0 0 0 0 0 0 0 0 0 0 0
8 8 8 8 12 12 0 0 0 0 0 0 0 0 0 0 0 0 0 0 0 0 0 0 8 8 0 0 0 0 0 0 0 0 0 0 8 12 20 8 0 0 0 0 0 0 0 0 0 0 0 0 12 24 20 0 0 0 0 24 20 0 0 0 0 0 0 0 0 0 0 0 0 0 0 0 0 0 0 0 0 0 0 0 0 8 8 8 0 0 0 0 0 0 0 0 0 0 0 0 0 0 0
8 8 8 8 8 8 0 0 0 0 0 0 0 0 0 0 0 0 0 0 0 0 0 0 8 8 0 0 0 0 0 0 0 0 0 0 8 12 0 0 0 0 0 0 0 0 0 0 0 0 8 12 44 48 0 0 0 0 0 8 8 8 0 0 0 0 0 0 0 0 0 0 0 0 0 0 0 0 0 0 0 0 0 0 0 8 8 8 8 8 0 0 0 0 0 0 0 0 0 0 0 0 0
8 8 8 8 8 0 0 8 0 0 0 0 0 0 0 0 0 0 0 0 0 0 0 0 0 0 0 0 0 0 0 0 0 0 0 0 0 0 0 0 0 0 0 0 0 0 0 0 0 0 0 8 24 32 0 0 0 0 0 0 12 20 8 0 20 24 0 0 0 0 0 0 0 0 0 0 0 0 0 8 12 20 8 8 8 8 8 8 8 8 0 0 0 0 0 0 0 0 0 0 0 0 0
12 12 8 8 8 8 8 8 8 0 0 0 0 0 0 0 0 0 0 0 0 0 0 0 0 0 0 0 0 0 0 0 0 0 0 0 0 0 0 0 0 0 0 0 0 0 0 0 0 0 0 0 0 0 0 0 0 0 0 0 8 20 32 48 36 24 32 8 0 0 0 0 0 0 0 0 0 8 0 0 8 12 32 24 12 8 8 8 8 8 0 0 0 0 0 0 0 0 0 0 0 0 8
20 20 12 12 12 8 8 8 8 8 0 8 8 8 0 0 0 0 0 0 0 0 0 0 0 0 0 0 0 0 0 0 0 0 0 0 0 0 0 0 0 0 0 0 0 0 0 0 0 0 0 0 0 0 0 0 0 0 0 8 44 56 8 32 36 36 36 20 8 8 0 8 0 0 0 0 0 0 0 0 0 0 8 8 8 12 12 8 8 8 0 0 0 0 0 0 0 0 0 0 8 12 20
20 20 20 20 12 12 12 8 8 8 8 8 8 8 8 8 0 0 0 0 0 0 0 0 0 0 0 0 0 0 0 0 0 0 0 0 0 0 0 0 0 0 0 0 0 0 0 0 0 0 0 0 0 0 0 0 0 0 12 24 44 48 12 32 36 36 36 36 24 12 12 32 20 0 0 0 0 0 0 0 0 0 8 8 12 12 12 8 8 0 0 0 0 0 0 0 0 0 0 8 12 12 8
20 20 20 20 20 12 12 12 12 8 8 8 8 8 8 8 0 0 0 0 0 0 0 0 0 0 8 8 8 8 8 8 0 0 0 0 0 0 0 0 0 0 0 0 0 0 0 0 0 0 0 0 0 0 0 0 0 20 48 36 32 32 24 44 48 44 36 48 44 36 36 20 12 8 0 0 0 0 0 0 0 8 8 12 12 12 12 8 8 0 0 8 0 0 0 0 0 0 20 24 12 0 8
8 12 12 12 12 12 12 12 12 12 12 12 12 12 12 8 8 8 8 8 0 0 0 0 8 8 8 0 0 0 8 8 0 0 0 0 0 0 0 0 0 0 0 0 0 0 0 0 0 0 0 0 0 0 0 0 0 12 48 76 56 20 8 32 44 48 24 44 44 44 44 24 12 8 0 0 0 0 0 0 8 8 8 12 12 12 12 8 0 0 0 0 0 0 0 0 0 0 0 8 8 0 0
8 8 8 8 8 8 12 12 12 12 12 12 12 12 12 12 12 8 8 8 8 8 8 8 8 0 0 0 0 0 0 0 0 0 0 0 0 0 0 0 0 0 0 0 0 0 0 0 0 0 0 0 0 0 0 0 0 12 68 56 36 24 12 20 32 36 32 20 32 48 56 44 24 8 0 0 0 0 0 0 8 8 8 12 20 12 12 8 0 0 0 0 0 0 0 0 0 0 0 0 0 0 0
8 8 8 8 8 8 8 8 12 12 12 12 12 8 8 8 8 8 8 8 8 8 8 8 0 0 0 0 0 0 0 0 0 0 0 0 0 0 0 0 0 0 0 0 0 0 0 0 0 0 0 0 0 0 0 0 0 0 8 8 8 8 20 24 24 24 44 24 24 32 36 56 44 24 12 8 0 0 0 8 8 8 12 12 12 12 8 0 0 0 0 0 0 0 0 0 0 0 0 0 0 0 0
8 8 8 0 0 8 8 8 8 8 8 8 8 8 8 8 8 8 8 8 8 8 0 8 8 8 12 8 8 0 0 0 0 0 0 0 0 0 0 0 0 0 0 0 0 0 0 8 12 8 8 8 0 0 0 0 0 0 0 8 8 8 8 24 24 24 44 36 24 12 12 36 56 48 24 12 8 0 0 8 8 12 12 20 12 8 8 0 0 0 0 0 0 0 0 0 0 0 0 0 0 0 0
8 8 8 8 8 8 8 8 8 8 8 8 8 0 0 8 8 8 8 8 0 0 0 0 8 20 32 20 12 8 0 0 0 0 0 0 0 0 0 0 0 0 0 0 8 8 8 12 12 12 12 12 8 8 8 8 8 8 0 0 0 0 0 12 12 20 32 36 36 24 0 24 36 36 12 12 8 8 8 8 8 12 20 20 12 8 0 0 0 0 0 0 0 0 0 0 0 8 0 0 0 0 0
8 8 8 8 8 8 8 8 8 12 12 8 8 0 0 0 8 8 8 0 0 0 0 12 24 36 36 24 12 0 0 0 0 8 8 8 8 8 8 8 8 8 8 8 12 12 12 12 12 12 12 12 12 8 8 8 8 8 0 0 0 0 0 0 0 8 12 24 44 44 12 20 32 36 24 12 8 8 8 8 12 12 20 20 12 8 0 0 0 0 0 0 0 0 0 0 0 0 0 0 0 0 0
8 0 0 0 8 8 8 0 8 8 8 8 8 0 0 0 8 8 8 0 0 8 20 36 56 64 36 20 8 8 8 0 0 8 8 8 8 8 8 8 12 12 12 12 12 12 12 8 8 8 8 8 8 8 8 0 8 8 0 0 0 0 0 0 0 8 8 20 32 36 12 8 20 36 56 36 20 8 8 8 12 20 24 20 12 8 0 0 0 0 0 0 0 0 0 0 0 0 0 0 0 0 0
8 8 0 0 0 0 8 8 8 8 0 8 8 0 0 0 0 8 0 0 0 12 24 32 36 32 20 12 8 8 8 8 0 0 0 0 0 0 0 8 12 12 12 12 12 8 8 8 8 8 8 8 0 0 0 0 12 20 0 0 0 0 0 0 0 0 0 8 20 20 8 0 8 24 92 76 36 8 8 12 20 24 32 12 8 0 0 0 0 0 8 0 0 0 0 0 0 0 0 0 0 0 0
24 20 8 8 20 24 0 0 12 24 12 12 8 8 8 8 8 12 20 20 20 20 12 12 8 8 8 8 8 8 8 0 0 0 0 0 0 0 0 0 8 12 12 12 12 12 8 8 8 8 0 0 0 0 0 0 12 12 0 0 0 0 0 0 0 0 0 8 8 0 8 8 8 20 64 88 48 8 8 20 24 32 24 8 0 0 0 0 0 0 0 0 0 0 0 0 0 0 0 0 0 0 0
56 44 44 32 48 68 36 32 32 32 32 24 12 12 12 12 12 12 20 20 20 12 12 8 8 8 8 8 8 8 8 0 0 0 0 0 0 0 0 0 0 8 8 8 8 8 8 8 8 8 8 0 0 0 0 8 8 8 8 8 8 8 0 0 0 0 0 0 0 0 0 0 8 12 36 64 44 12 8 24 32 24 20 0 0 0 0 0 0 0 0 0 0 0 0 0 0 0 0 0 0 0 0
76 68 68 68 68 68 48 32 24 24 36 24 20 12 20 20 20 20 12 12 12 12 12 12 12 12 12 8 8 8 8 0 0 0 0 0 0 0 0 0 0 0 8 8 8 8 8 8 8 8 8 8 8 8 8 8 12 12 12 12 12 8 8 0 0 0 0 0 0 0 0 0 0 12 32 36 36 32 24 32 32 20 8 0 0 0 0 0 0 0 0 0 0 0 0 0 0 0 0 0 0 0 0
88 88 80 88 80 76 76 48 32 24 36 20 12 12 12 20 24 32 20 20 12 12 12 12 12 12 12 8 8 8 0 0 0 0 0 0 0 0 0 0 0 0 8 8 8 8 8 8 8 8 8 8 8 8 8 8 12 12 8 8 8 8 8 0 0 0 0 0 0 0 0 0 0 8 8 12 20 20 32 36 36 24 0 0 0 0 0 12 12 12 0 0 0 0 0 0 0 0 0 0 0 0 0
88 88 88 88 88 88 80 48 32 20 32 12 12 12 20 20 20 20 12 24 24 20 20 20 12 12 8 8 8 0 0 0 0 0 0 0 0 0 8 8 8 8 8 8 8 8 8 8 8 8 8 8 8 8 8 8 8 8 0 0 0 0 0 0 0 0 0 0 0 0 0 0 0 0 8 12 20 24 32 24 32 24 0 0 0 0 0 0 20 32 24 8 0 0 0 0 0 0 0 0 0 0 0
80 76 76 76 76 68 68 36 32 36 32 20 12 12 20 32 32 24 20 20 20 24 32 24 20 8 0 0 0 0 8 8 8 8 0 0 8 8 8 8 8 8 8 8 8 8 8 8 8 8 8 0 0 0 0 0 0 0 0 0 0 0 0 0 0 0 0 0 0 8 8 12 12 12 20 20 32 36 24 20 32 44 12 20 8 0 0 0 20 44 48 24 8 0 0 0 0 0 0 0 0 0 0
68 56 68 76 68 64 44 24 24 24 20 20 12 12 24 36 36 32 24 20 20 32 64 32 12 8 8 8 8 8 8 8 8 8 8 8 8 8 8 8 8 8 8 8 8 0 0 0 0 0 0 0 0 0 0 0 0 0 0 0 0 0 0 0 0 0 0 0 0 8 20 24 24 32 36 44 48 44 20 20 20 24 44 36 44 36 24 20 8 20 56 24 8 0 0 0 0 0 0 0 0 0 0
56 44 76 80 76 48 24 20 20 20 20 24 20 12 12 24 36 44 32 20 12 24 68 24 8 8 8 8 0 0 8 8 8 8 8 8 8 8 0 0 0 0 0 0 0 0 0 0 0 0 0 0 0 0 0 0 0 0 0 0 0 0 0 0 0 0 0 0 8 12 20 32 36 44 48 48 48 44 32 24 12 20 36 48 76 88 76 48 24 8 8 8 0 0 0 0 0 0 0 32 24 8 0
36 36 68 68 68 64 32 20 12 12 24 24 20 8 12 12 20 24 20 12 12 24 68 24 8 8 0 0 0 0 0 0 0 8 8 0 0 0 0 0 0 0 0 0 0 0 0 0 0 0 0 0 0 0 0 0 0 0 0 0 0 0 0 0 0 0 0 0 0 8 20 24 36 44 44 36 32 24 24 12 8 12 24 48 68 68 64 44 24 12 12 36 24 8 12 48 32 0 0 36 48 36 12
32 44 68 76 76 68 36 32 24 20 36 32 20 8 8 8 12 12 12 8 32 48 36 20 8 8 0 0 0 0 0 0 0 0 0 0 0 0 0 0 0 0 0 0 0 0 0 0 0 0 0 0 0 0 0 0 0 0 0 0 0 0 0 0 0 0 0 0 0 0 12 20 32 44 44 36 32 24 12 8 8 20 32 56 56 44 32 32 20 20 44 24 12 12 36 80 76 44 0 20 56 80 44
44 68 76 80 76 68 44 44 32 32 64 32 20 12 8 8 12 12 12 12 12 12 8 8 8 0 0 0 0 0 0 0 0 0 0 0 0 0 0 0 0 0 0 0 0 0 0 0 0 0 0 0 0 0 0 0 0 0 0 0 0 0 0 0 0 0 0 0 0 0 0 8 8 12 32 32 32 32 24 8 8 20 56 56 64 56 44 36 32 36 56 20 0 0 12 76 80 48 8 8 8 24 68
48 64 68 56 36 36 56 48 44 44 64 36 20 12 24 12 20 24 20 8 8 0 0 0 0 0 0 0 0 0 0 0 0 0 0 0 0 0 0 0 0 0 0 0 0 0 0 0 0 0 0 0 0 0 0 0 0 0 0 0 0 0 0 0 0 0 0 0 0 0 0 0 0 0 8 12 20 20 8 8 12 20 20 32 44 48 64 56 56 68 88 44 12 0 0 0 0 0 0 0 0 12 36
48 44 44 24 20 24 44 32 24 20 32 36 24 20 36 24 12 8 12 8 8 0 0 0 0 0 0 0 0 0 0 0 0 0 0 0 0 0 0 0 0 0 0 0 0 0 0 0 0 0 0 0 0 0 0 0 0 0 0 0 0 0 0 0 0 0 0 0 0 0 0 0 0 0 0 0 8 12 8 8 12 20 32 24 24 32 56 48 48 48 48 12 8 8 0 0 0 0 0 0 12 20 0
8 12 12 12 12 20 24 24 20 20 20 24 20 12 8 8 8 8 8 8 8 0 0 0 0 0 0 0 0 0 0 0 0 0 0 0 0 0 0 0 0 0 0 0 0 0 0 0 0 0 0 0 0 0 0 0 0 0 0 0 0 0 0 0 0 0 0 0 0 0 0 0 0 0 8 8 8 8 12 8 8 0 0 8 8 0 0 0 20 32 12 0 0 0 0 0 0 0 0 0 0 8 8
8 8 8 8 8 12 20 20 12 8 8 12 8 8 8 8 8 8 8 8 8 8 0 0 0 0 0 0 0 0 0 0 0 0 0 0 0 0 0 0 0 0 0 0 0 0 0 0 0 0 0 0 0 0 0 0 0 0 0 0 0 0 0 0 0 0 0 0 0 0 0 0 0 0 8 8 8 8 8 8 0 0 0 0 0 0 0 0 0 0 0 0 0 0 0 0 0 0 0 0 0 8 24
8 8 8 8 8 8 8 20 12 8 0 8 8 8 8 0 0 0 8 0 0 0 0 0 0 0 0 0 0 0 0 0 0 0 0 0 0 0 0 0 0 0 0 0 0 0 0 0 0 0 0 0 0 0 0 0 0 0 0 0 0 0 0 0 0 0 0 0 0 0 0 0 0 0 0 8 8 8 8 0 0 0 8 0 0 0 0 0 0 0 0 0 0 0 0 0 0 0 0 0 0 0 0
0 0 0 0 0 0 0 12 20 12 0 8 12 12 8 8 0 0 8 0 0 0 0 0 0 0 0 0 0 0 0 0 0 0 0 0 0 0 0 0 0 0 0 0 0 0 0 0 0 0 0 0 0 0 0 0 0 0 0 0 0 0 0 8 8 8 8 8 8 0 0 0 0 0 0 0 0 0 0 0 0 0 12 20 12 8 0 8 0 0 0 0 0 0 0 0 0 0 0 0 0 0 8
0 0 0 0 0 0 0 8 12 12 8 0 8 12 8 8 8 8 8 8 8 0 0 0 0 0 0 0 0 0 0 0 0 0 0 0 0 0 0 0 0 0 0 0 0 0 0 0 0 0 0 0 0 0 0 0 0 0 0 0 0 0 8 8 8 8 8 8 0 0 0 0 0 0 0 0 0 0 0 0 0 8 12 12 20 12 12 20 12 0 0 0 0 0 0 0 0 0 0 0 0 0 0
0 0 0 0 0 0 0 0 12 12 8 0 8 12 8 8 12 12 12 12 8 0 0 0 0 0 0 0 0 0 0 0 0 0 0 0 0 0 0 0 0 0 0 0 0 0 0 0 0 0 0 0 0 0 0 0 0 0 0 0 0 8 8 8 8 8 8 8 0 0 0 0 0 0 0 0 0 0 0 0 0 8 12 8 0 0 0 20 12 0 0 0 0 0 0 0 0 0 0 0 0 0 0
8 8 8 0 0 0 0 0 8 12 8 8 8 8 8 12 12 20 12 8 0 0 0 0 0 0 0 0 0 0 0 0 0 0 0 0 0 0 0 0 0 0 0 0 0 0 0 0 0 0 0 0 0 0 0 0 0 0 0 0 0 8 8 8 8 8 8 0 0 0 0 0 0 0 0 0 0 0 0 0 0 0 12 8 0 0 8 8 8 0 0 0 0 0 0 0 0 0 0 0 0 8 12
12 8 8 8 8 0 0 0 8 12 8 8 8 8 12 20 20 12 8 8 0 0 0 0 0 0 0 0 0 0 0 0 0 0 0 0 0 0 0 0 0 0 0 0 0 0 0 0 0 0 0 0 0 0 0 0 0 0 0 0 0 0 0 0 0 0 0 0 0 0 0 0 0 0 0 0 0 0 0 0 0 0 0 0 0 0 8 0 0 0 0 0 0 0 0 0 0 0 0 8 12 20 20
12 12 12 8 8 8 0 0 8 8 8 8 8 12 20 20 12 12 8 8 8 0 0 0 0 0 0 0 0 0 0 0 0 0 0 0 0 0 0 0 0 0 0 0 0 0 0 0 0 0 0 0 0 0 0 0 0 0 0 0 0 0 0 0 0 0 0 0 0 0 0 0 0 0 0 0 0 0 0 0 0 0 0 0 0 0 0 0 0 0 0 0 0 0 0 0 0 0 8 20 24 24 20
24 24 20 12 8 8 0 0 0 12 12 20 20 20 12 8 8 8 8 8 8 8 0 0 0 0 0 0 0 0 0 0 0 0 0 0 0 0 0 0 0 0 0 0 0 0 0 0 0 0 0 0 0 0 0 0 0 0 0 0 0 0 0 0 0 0 0 0 0 0 0 0 0 0 0 0 0 0 0 0 0 0 0 0 0 0 0 0 0 0 0 0 0 0 0 0 8 12 20 20 20 8 8
36 32 24 20 8 8 0 0 12 20 24 24 24 20 12 8 0 8 12 12 12 12 8 8 8 8 0 0 8 8 8 0 0 0 0 0 0 0 0 8 8 0 0 0 0 0 0 0 0 0 0 0 0 0 0 0 0 0 0 0 0 0 0 0 0 0 0 0 0 0 0 0 0 0 0 0 0 0 0 0 0 0 0 0 0 0 0 0 0 0 0 0 0 0 0 8 20 24 24 12 0 0 0
44 36 24 20 12 12 12 20 24 32 32 20 12 12 8 8 8 8 8 20 20 20 20 12 12 12 0 0 0 0 8 0 8 8 0 0 0 0 8 8 12 8 0 0 0 0 0 0 0 8 0 0 0 0 0 0 0 0 0 0 0 0 0 0 0 0 0 0 0 0 0 0 0 0 0 0 0 0 0 0 0 0 0 0 0 0 0 0 0 0 0 0 0 8 0 12 20 20 12 0 0 0 0
48 48 44 36 36 36 36 32 24 20 20 8 0 0 0 8 8 8 8 20 24 24 24 20 20 20 12 0 0 0 0 8 8 8 12 8 8 0 8 12 20 12 0 0 0 0 0 0 0 8 0 0 0 0 0 0 0 0 0 0 0 0 0 0 0 0 0 0 0 0 0 0 0 0 0 0 0 0 0 0 0 0 0 0 0 0 0 0 0 0 0 8 12 12 12 8 8 0 0 0 0 0 0
64 64 64 56 48 44 24 20 12 8 8 8 0 0 0 8 12 12 8 24 24 24 36 32 24 20 20 12 8 0 8 12 12 12 8 8 8 8 12 20 20 12 0 0 0 0 0 0 0 0 0 0 0 0 0 0 0 0 0 0 0 0 0 0 0 0 0 0 0 0 0 0 0 0 0 0 0 0 0 0 0 0 0 0 0 0 0 0 0 0 0 12 20 20 20 8 0 0 0 0 0 0 0
76 76 68 56 44 32 20 8 0 0 0 8 8 0 0 0 12 12 12 24 32 32 44 36 24 20 24 20 12 12 20 24 20 12 8 8 8 12 20 12 12 8 0 0 0 0 8 0 0 0 0 0 0 0 0 0 0 0 0 0 0 0 0 0 0 0 0 0 0 0 0 0 0 0 0 0 0 0 0 0 0 0 0 0 0 0 0 0 0 0 0 8 8 8 8 0 0 0 0 0 0 0 0
68 64 56 36 32 24 20 8 0 12 36 56 32 0 0 0 8 12 8 24 32 32 36 36 36 36 32 24 20 24 32 32 24 12 12 12 12 20 12 12 8 8 0 0 8 8 8 0 0 0 0 0 0 0 0 0 0 0 0 0 0 0 0 0 0 0 0 0 0 0 0 0 0 0 0 0 0 0 0 0 0 0 0 0 0 0 0 0 0 0 0 0 0 0 0 0 0 0 0 0 0 0 0
64 56 48 44 32 24 20 12 8 24 80 76 56 36 20 8 8 12 8 24 36 36 44 44 44 44 36 20 24 36 36 32 20 12 8 12 20 20 12 8 0 0 0 0 8 8 0 0 0 8 8 8 0 0 0 0 0 0 0 0 0 0 0 0 0 0 0 0 0 0 0 0 0 0 0 0 0 0 0 0 0 0 0 0 0 0 0 0 0 0 0 0 0 0 0 0 0 0 0 0 0 0 0
64 56 56 48 36 32 24 20 36 56 76 68 68 76 68 64 56 44 36 44 44 44 48 48 48 44 36 36 44 48 44 24 20 12 12 20 20 20 20 12 8 0 0 0 0 8 8 8 8 8 8 8 8 0 0 0 0 0 0 0 0 0 0 0 0 0 0 0 0 0 0 0 0 0 0 0 0 0 0 0 0 8 8 0 0 0 0 0 0 0 0 0 0 0 0 0 0 0 0 0 0 0 0
56 64 68 68 64 56 48 36 48 68 80 88 88 80 88 80 80 76 56 48 36 32 44 44 48 56 56 56 48 44 32 24 20 20 12 32 24 20 20 12 8 8 8 8 8 8 8 8 8 8 8 8 0 0 0 0 0 0 0 0 0 0 0 0 0 0 0 0 0 0 0 0 0 0 0 0 0 0 0 0 0 8 12 8 0 0 0 0 0 0 0 0 0 0 0 0 0 0 0 0 0 0 0
76 88 88 80 76 68 64 56 56 64 76 92 92 88 88 80 80 76 56 44 32 24 24 32 44 56 64 48 44 36 24 24 24 24 32 36 32 20 12 12 12 12 12 12 8 8 0 8 8 8 0 0 0 0 0 0 0 0 0 0 0 0 0 0 0 0 0 0 0 0 0 0 0 0 0 0 8 8 8 8 8 8 8 8 8 0 0 0 0 0 0 0 0 0 0 0 0 0 0 0 0 0 0
88 88 80 80 76 68 68 64 56 56 64 76 80 88 88 80 76 68 64 36 20 12 8 12 32 56 68 64 44 32 24 20 20 32 48 32 24 24 12 12 12 12 12 12 12 12 8 0 0 0 0 0 0 0 0 0 0 8 8 0 12 24 32 8 0 0 0 12 8 0 0 0 0 0 0 12 20 20 0 8 8 8 8 8 0 0 0 0 0 0 0 0 0 0 0 0 0 0 0 0 0 0 0
76 76 76 68 64 56 48 48 48 48 48 68 80 88 88 76 68 68 56 24 8 0 12 20 32 48 80 68 48 32 24 24 24 24 32 32 24 20 20 20 36 44 8 8 8 8 0 0 0 0 0 0 0 0 0 0 8 8 0 0 12 32 48 44 20 0 0 0 12 24 0 8 8 0 0 0 8 12 8 12 12 12 8 0 12 20 24 8 0 0 0 0 0 0 0 0 0 0 0 0 8 8 0
68 76 76 68 56 48 56 56 64 76 88 88 92 92 88 76 76 76 68 32 20 12 20 20 20 32 76 68 64 44 32 24 24 24 24 12 12 8 8 8 8 8 8 0 0 0 8 8 8 8 0 0 0 8 0 0 0 8 0 0 24 48 64 48 24 8 0 0 20 32 8 8 8 0 0 0 20 36 24 24 12 0 8 0 12 32 36 20 8 0 0 0 0 0 12 8 0 0 0 0 8 8 8
68 68 64 56 48 56 76 80 88 88 92 92 92 92 88 92 92 88 76 64 36 20 20 24 24 36 68 56 48 44 32 32 24 24 24 12 8 0 0 0 0 0 0 0 0 8 12 12 20 32 36 8 0 0 8 0 0 0 0 0 0 20 76 48 32 20 20 12 12 12 24 12 8 0 0 0 0 12 44 12 0 0 0 0 12 36 56 36 20 8 0 0 0 0 0 8 8 8 0 8 12 12 8
76 68 76 68 76 80 92 88 88 88 88 92 92 92 92 92 88 80 76 64 36 24 24 32 32 44 64 48 44 44 36 32 24 20 12 8 0 0 0 0 0 0 0 0 0 8 8 12 20 32 48 24 8 0 8 0 0 0 0 0 0 20 68 48 44 36 32 24 20 20 24 8 0 0 0 0 0 8 24 8 0 0 0 0 0 12 56 48 32 20 20 8 0 0 0 0 12 20 20 32 32 20 12
76 76 76 76 80 80 88 92 92 92 92 92 92 92 92 92 80 68 68 56 44 32 32 32 36 44 56 48 68 80 64 32 20 20 20 8 8 12 8 8 0 0 8 8 8 8 8 20 20 24 32 80 64 32 36 12 0 0 0 8 12 24 56 56 56 48 48 36 32 24 20 12 8 0 0 0 0 0 0 8 8 0 0 0 0 8 44 48 44 32 20 12 8 0 0 0 12 32 44 48 48 36 24
64 64 68 68 68 76 80 88 92 92 92 92 92 92 92 88 80 76 68 68 56 44 32 36 48 56 48 68 80 92 92 48 24 24 36 36 36 36 20 12 12 12 12 12 12 12 12 12 20 24 44 80 76 48 12 8 0 0 12 20 24 36 64 76 68 56 48 44 32 24 32 24 12 8 0 0 0 0 0 8 8 0 0 0 0 12 64 64 48 36 24 12 8 0 0 8 12 20 48 56 56 48 32
64 64 76 68 64 68 80 80 80 88 88 92 92 92 88 88 80 80 80 76 64 56 44 44 48 48 44 68 88 92 80 68 48 56 92 76 76 68 48 32 24 12 12 12 20 20 20 12 20 44 88 92 92 76 24 24 20 20 24 24 24 36 64 76 68 56 44 44 36 36 48 48 32 8 0 0 0 0 0 0 0 0 0 0 0 12 56 64 56 48 36 20 12 8 12 8 8 8 24 48 56 64 64